Location: Forst
(46.9333°N, 15.4333°E)
Time: 14:41:29
(UTC+00:00)

USA 215 - Pass Details

Date: 01 December 2020
Orbit: 1098 x 1110 km, 123.0° (Epoch: 22 January)

Event Time Altitude Azimuth Distance (km) Brightness Sun altitude
Exits shadow 16:59:29 27° 80° (E) 1,994 4.0 -17.8°
Maximum altitude 17:02:35 43° 132° (SE) 1,520 3.7 -18.3°
Drops below altitude 10° 17:08:45 10° 202° (SSW) 2,965 6.0 -19.4°
Sets 17:11:23 0° 209° (SSW) 3,920 6.8 -19.8°
